Ainsworth, NE

4:56 AM CDT on August 29, 2016 (GMT -0500)
Ainsworth Municipal

Weather History for KANW - October, 2012

Change the Weather History Date:

Thursday, October 18, 2012

  Actual Average Record
Temperature  
Mean Temperature 46 °F -  
Max Temperature 48 °F 59 °F 86 °F (2003)
Min Temperature 42 °F 35 °F 24 °F (1996)
Degree Days  
Heating Degree Days 20    
Moisture  
Dew Point 25 °F    
Average Humidity 47    
Maximum Humidity 62    
Minimum Humidity 34    
Precipitation  
Precipitation 0.00 in - - ()
Sea Level Pressure  
Sea Level Pressure 29.74 in    
Wind  
Wind Speed 34 mph (NW)    
Max Wind Speed 50 mph    
Max Gust Speed 64 mph    
Visibility 9 miles    
Events      
Averages and records for this station are not official NWS values.
T = Trace of Precipitation, MM = Missing Value Source: NWS Daily Summary

Daily Weather History Graph

Daily Weather History Graph

Search for Another Location

Airport or City:

Trip Planner

Search our weather history database for the weather conditions in past years. The results will help you decide how hot, cold, wet, or windy it might be!

Date:

Astronomy

Oct. 18, 2012 Rise Set
Actual Time 7:57 AM CDT 6:52 PM CDT
Civil Twilight 7:28 AM CDT 7:20 PM CDT
Nautical Twilight 6:55 AM CDT 7:53 PM CDT
Astronomical Twilight 6:23 AM CDT 8:25 PM CDT
Moon 11:45 AM CDT (10/18) 9:23 PM CDT (10/18)
Length of Visible Light 11h 52m
Length of Day
10h 54m
Waxing Crescent, 14% of the Moon is Illuminated
Oct 18
Waxing Crescent
Oct 21
First Quarter
Oct 29
Full
Nov 6
Last Quarter
Nov 13
New

Hourly Weather History & Observations

Time (CDT) Temp. Windchill Dew Point Humidity Pressure Visibility Wind Dir Wind Speed Gust Speed Precip Events Conditions
12:15 AM 44.2 °F 35.2 °F 21.0 °F 40% 29.69 in 10.0 mi WNW 24.2 mph 35.7 mph N/A   Clear
12:35 AM 44.6 °F 35.3 °F 19.9 °F 37% 29.68 in 10.0 mi WNW 26.5 mph 35.7 mph N/A   Clear
12:55 AM 44.6 °F 34.6 °F 19.0 °F 36% 29.68 in 10.0 mi WNW 31.1 mph 41.4 mph N/A   Clear
1:15 AM 44.6 °F 34.9 °F 19.2 °F 36% 29.68 in 10.0 mi WNW 28.8 mph 40.3 mph N/A   Clear
1:35 AM 45.0 °F 36.0 °F 19.4 °F 36% 29.68 in 10.0 mi WNW 25.3 mph 41.4 mph N/A   Clear
1:55 AM 44.8 °F 35.0 °F 19.2 °F 36% 29.68 in 10.0 mi WNW 29.9 mph 47.2 mph N/A   Clear
2:15 AM 45.1 °F 35.5 °F 18.9 °F 35% 29.68 in 10.0 mi WNW 29.9 mph 43.7 mph N/A   Clear
2:35 AM 44.8 °F 34.8 °F 18.5 °F 35% 29.68 in 10.0 mi WNW 31.1 mph 41.4 mph N/A   Scattered Clouds
2:55 AM 44.6 °F 33.9 °F 18.5 °F 35% 29.69 in 10.0 mi NW 35.7 mph 46.0 mph N/A   Clear
3:15 AM 44.6 °F 33.9 °F 18.5 °F 35% 29.69 in 10.0 mi NW 35.7 mph 50.6 mph N/A   Scattered Clouds
3:35 AM 44.6 °F 33.9 °F 18.5 °F 35% 29.67 in 10.0 mi WNW 35.7 mph 47.2 mph N/A   Mostly Cloudy
3:55 AM 44.8 °F 34.8 °F 18.5 °F 35% 29.67 in 10.0 mi WNW 31.1 mph 50.6 mph N/A   Overcast
4:15 AM 45.0 °F 35.1 °F 18.3 °F 35% 29.68 in 10.0 mi WNW 31.1 mph 44.9 mph N/A   Overcast
4:35 AM 44.8 °F 35.0 °F 18.1 °F 34% 29.67 in 10.0 mi WNW 29.9 mph 43.7 mph N/A   Overcast
4:55 AM 44.6 °F 34.4 °F 18.1 °F 35% 29.68 in 10.0 mi NW 32.2 mph 46.0 mph N/A   Overcast
5:15 AM 44.6 °F 34.6 °F 18.5 °F 35% 29.68 in 10.0 mi NW 31.1 mph 42.6 mph N/A   Overcast
5:35 AM 44.6 °F 33.6 °F 18.5 °F 35% 29.69 in 10.0 mi NW 38.0 mph 56.4 mph N/A   Overcast
5:55 AM 43.9 °F 32.6 °F 18.5 °F 36% 29.67 in 10.0 mi WNW 38.0 mph 47.2 mph N/A   Overcast
6:15 AM 43.9 °F 33.6 °F 19.0 °F 37% 29.67 in 10.0 mi NW 31.1 mph 51.8 mph N/A   Overcast
6:35 AM 43.7 °F 33.0 °F 19.0 °F 37% 29.67 in 10.0 mi WNW 33.4 mph 48.3 mph N/A   Overcast
6:55 AM 43.2 °F 32.1 °F 19.9 °F 40% 29.67 in 10.0 mi WNW 34.5 mph 50.6 mph N/A   Overcast
7:15 AM 43.2 °F 32.3 °F 20.8 °F 41% 29.67 in 10.0 mi NW 33.4 mph 50.6 mph N/A   Overcast
7:35 AM 43.2 °F 32.1 °F 21.2 °F 42% 29.67 in 10.0 mi NW 34.5 mph 55.2 mph N/A   Mostly Cloudy
7:55 AM 43.2 °F 31.9 °F 22.3 °F 44% 29.66 in 10.0 mi NW 35.7 mph 46.0 mph N/A   Overcast
8:15 AM 43.3 °F 31.9 °F 23.5 °F 46% 29.67 in 7.0 mi NW 38.0 mph 58.7 mph N/A   Mostly Cloudy
8:35 AM 43.2 °F 31.5 °F 23.7 °F 46% 29.67 in 10.0 mi NW 39.1 mph 54.1 mph N/A   Overcast
8:55 AM 43.2 °F 31.2 °F 23.9 °F 47% 29.67 in 10.0 mi NW 41.4 mph 55.2 mph N/A   Overcast
9:15 AM 43.7 °F 31.4 °F 24.4 °F 47% 29.67 in 10.0 mi NW 46.0 mph 55.2 mph N/A   Overcast
9:35 AM 43.9 °F 31.7 °F 24.8 °F 47% 29.69 in 5.0 mi NW 46.0 mph 57.5 mph N/A   Haze
9:55 AM 43.9 °F 31.8 °F 24.6 °F 47% 29.69 in 5.0 mi NW 44.9 mph 57.5 mph N/A   Haze
10:15 AM 43.2 °F 31.1 °F 24.6 °F 48% 29.69 in 4.0 mi NW 42.6 mph 62.1 mph N/A   Haze
10:35 AM 43.2 °F 31.2 °F 24.8 °F 48% 29.69 in 5.0 mi NW 41.4 mph 55.2 mph N/A   Haze
10:55 AM 43.5 °F 31.8 °F 25.5 °F 49% 29.70 in 5.0 mi NW 40.3 mph 57.5 mph N/A   Haze
11:15 AM 43.9 °F 32.6 °F 26.2 °F 50% 29.70 in 5.0 mi NW 38.0 mph 61.0 mph N/A   Haze
11:35 AM 44.2 °F 32.1 °F 26.6 °F 50% 29.71 in 5.0 mi NW 47.2 mph 56.4 mph N/A   Haze
11:55 AM 44.6 °F 32.8 °F 26.6 °F 49% 29.71 in 5.0 mi NW 44.9 mph 59.8 mph N/A   Haze
12:15 PM 45.9 °F 34.8 °F 27.1 °F 48% 29.72 in 5.0 mi NW 42.6 mph 59.8 mph N/A   Haze
12:35 PM 45.5 °F 34.0 °F 27.7 °F 50% 29.73 in 5.0 mi NW 46.0 mph 57.5 mph N/A   Haze
12:55 PM 45.7 °F 34.5 °F 28.4 °F 51% 29.73 in 7.0 mi NW 43.7 mph 58.7 mph N/A   Overcast
1:15 PM 45.9 °F 34.5 °F 29.1 °F 52% 29.73 in 5.0 mi NW 46.0 mph 58.7 mph N/A   Haze
1:35 PM 45.9 °F 34.2 °F 29.8 °F 54% 29.73 in 5.0 mi NW 48.3 mph 64.4 mph N/A   Haze
1:55 PM 46.9 °F - 29.8 °F 51% 29.72 in 4.0 mi NW 49.5 mph 61.0 mph N/A   Haze
2:15 PM 47.1 °F - 28.9 °F 49% 29.73 in 5.0 mi NW 47.2 mph 57.5 mph N/A   Haze
2:35 PM 47.7 °F - 29.3 °F 49% 29.73 in 7.0 mi NW 40.3 mph 61.0 mph N/A   Overcast
2:55 PM 47.3 °F - 29.3 °F 50% 29.75 in 7.0 mi NW 44.9 mph 58.7 mph N/A   Overcast
3:15 PM 46.6 °F - 30.0 °F 53% 29.76 in 7.0 mi NW 42.6 mph 56.4 mph N/A   Overcast
3:35 PM 46.0 °F 35.8 °F 30.6 °F 55% 29.77 in 10.0 mi NW 36.8 mph 54.1 mph N/A   Overcast
3:55 PM 46.4 °F 36.5 °F 30.6 °F 54% 29.78 in 10.0 mi NW 34.5 mph 52.9 mph N/A   Overcast
4:15 PM 47.3 °F - 30.0 °F 51% 29.78 in 10.0 mi NW 32.2 mph 47.2 mph N/A   Overcast
4:35 PM 47.3 °F - 30.7 °F 53% 29.80 in 10.0 mi NW 41.4 mph 55.2 mph N/A   Overcast
4:55 PM 47.5 °F - 30.7 °F 52% 29.80 in 10.0 mi NW 38.0 mph 51.8 mph N/A   Overcast
5:15 PM 48.4 °F - 30.6 °F 50% 29.80 in 10.0 mi NNW 33.4 mph 41.4 mph N/A   Overcast
5:35 PM 48.6 °F - 30.2 °F 49% 29.80 in 10.0 mi NW 36.8 mph 50.6 mph N/A   Overcast
5:55 PM 48.4 °F - 30.2 °F 49% 29.80 in 10.0 mi NNW 31.1 mph 42.6 mph N/A   Overcast
6:15 PM 48.2 °F - 30.2 °F 50% 29.81 in 10.0 mi NW 38.0 mph 48.3 mph N/A   Scattered Clouds
6:35 PM 47.7 °F - 30.2 °F 51% 29.82 in 10.0 mi NW 39.1 mph 49.5 mph N/A   Mostly Cloudy
6:55 PM 46.8 °F - 30.2 °F 53% 29.83 in 10.0 mi NW 29.9 mph 39.1 mph N/A   Mostly Cloudy
7:15 PM 46.4 °F 37.2 °F 30.2 °F 53% 29.83 in 10.0 mi NW 29.9 mph 44.9 mph N/A   Scattered Clouds
7:35 PM 45.9 °F 36.4 °F 30.6 °F 55% 29.83 in 10.0 mi NW 29.9 mph 43.7 mph N/A   Clear
7:55 PM 45.9 °F 36.3 °F 30.7 °F 56% 29.84 in 10.0 mi NW 31.1 mph 47.2 mph N/A   Clear
8:15 PM 45.5 °F 35.5 °F 30.7 °F 56% 29.85 in 10.0 mi NW 33.4 mph 44.9 mph N/A   Clear
8:35 PM 44.8 °F 35.5 °F 30.7 °F 58% 29.85 in 10.0 mi NW 26.5 mph 41.4 mph N/A   Clear
8:55 PM 44.6 °F 34.7 °F 30.7 °F 58% 29.85 in 10.0 mi NW 29.9 mph 40.3 mph N/A   Clear
9:15 PM 44.1 °F 34.2 °F 30.7 °F 59% 29.86 in 10.0 mi NNW 28.8 mph 39.1 mph N/A   Clear
9:35 PM 43.9 °F 35.0 °F 30.6 °F 59% 29.87 in 10.0 mi NW 23.0 mph 36.8 mph N/A   Clear
9:55 PM 43.7 °F 34.5 °F 30.4 °F 59% 29.87 in 10.0 mi NW 24.2 mph 39.1 mph N/A   Clear
10:15 PM 43.7 °F 33.7 °F 30.2 °F 59% 29.88 in 10.0 mi NNW 28.8 mph 38.0 mph N/A   Scattered Clouds
10:35 PM 43.2 °F 32.6 °F 30.2 °F 60% 29.88 in 10.0 mi NNW 31.1 mph 36.8 mph N/A   Scattered Clouds
10:55 PM 42.8 °F 32.7 °F 30.4 °F 62% 29.88 in 10.0 mi NW 27.6 mph 36.8 mph N/A   Scattered Clouds